• In Hungary
  • List of Countries
  • For 7 days
  • Water Temperature
  • Satellite Maps
  • Weather Map
  • News
  • Weather Widgets
  • user-avatar
    Login

    Hourly Weather Kayanza

    Today, 16 January, Tuesday

    Time Temperature Precipitation Wind Pressure Humidity
    00:00 +13°C° 0 mm 0 mps 605 mmHg 79%
    01:00 +13°C° 0 mm 0 mps 605 mmHg 80%
    02:00 +13°C° 0 mm 0 mps 605 mmHg 80%
    03:00 +14°C° 0 mm 1 mps 605 mmHg 80%
    04:00 +14°C° 0 mm 1 mps 605 mmHg 81%
    05:00 +14°C° 0 mm 1 mps 605 mmHg 81%
    06:00 +14°C° 0 mm 0 mps 605 mmHg 77%
    07:00 +15°C° 0 mm 0 mps 606 mmHg 73%
    08:00 +17°C° 0 mm 0 mps 607 mmHg 67%
    09:00 +21°C° 0 mm 1 mps 607 mmHg 58%
    10:00 +24°C° 0 mm 1 mps 608 mmHg 49%
    11:00 +26°C° 0 mm 2 mps 608 mmHg 40%
    12:00 +26°C° 0 mm 2 mps 607 mmHg 41%
    13:00 +26°C° 0 mm 2 mps 607 mmHg 41%
    14:00 +25°C° 0 mm 2 mps 606 mmHg 44%
    15:00 +24°C° 0 mm 1 mps 605 mmHg 47%
    16:00 +23°C° 0 mm 1 mps 605 mmHg 49%
    17:00 +22°C° 0 mm 1 mps 605 mmHg 52%
    18:00 +21°C° 0 mm 1 mps 604 mmHg 56%
    19:00 +19°C° 0 mm 1 mps 604 mmHg 60%
    20:00 +16°C° 0 mm 1 mps 604 mmHg 65%
    21:00 +16°C° 0 mm 1 mps 604 mmHg 65%
    22:00 +15°C° 0 mm 1 mps 604 mmHg 66%
    23:00 +15°C° 0 mm 1 mps 605 mmHg 67%

    Tomorrow, 17 January, Wednesday

    Time Temperature Precipitation Wind Pressure Humidity
    00:00 +14°C° 0 mm 0 mps 604 mmHg 68%
    01:00 +13°C° 0 mm 0 mps 604 mmHg 70%
    02:00 +13°C° 0 mm 0 mps 604 mmHg 71%
    03:00 +13°C° 0 mm 0 mps 604 mmHg 72%
    04:00 +13°C° 0 mm 0 mps 604 mmHg 73%
    05:00 +13°C° 0 mm 0 mps 603 mmHg 74%
    06:00 +14°C° 0 mm 0 mps 604 mmHg 70%
    07:00 +16°C° 0 mm 0 mps 605 mmHg 66%
    08:00 +17°C° 0 mm 0 mps 606 mmHg 62%
    09:00 +21°C° 0 mm 1 mps 606 mmHg 55%
    10:00 +23°C° 0 mm 1 mps 607 mmHg 48%
    11:00 +25°C° 0 mm 1 mps 607 mmHg 41%
    12:00 +25°C° 0 mm 1 mps 607 mmHg 42%
    13:00 +25°C° 0 mm 1 mps 606 mmHg 42%
    14:00 +25°C° 0 mm 1 mps 605 mmHg 43%
    15:00 +24°C° 0 mm 1 mps 605 mmHg 47%
    16:00 +23°C° 0 mm 1 mps 604 mmHg 50%
    17:00 +22°C° 0 mm 1 mps 603 mmHg 54%
    18:00 +20°C° 0 mm 1 mps 603 mmHg 58%
    19:00 +19°C° 0 mm 1 mps 603 mmHg 63%
    20:00 +16°C° 0 mm 1 mps 603 mmHg 67%
    21:00 +16°C° 0 mm 1 mps 604 mmHg 69%
    22:00 +15°C° 0 mm 1 mps 604 mmHg 70%
    23:00 +15°C° 0 mm 1 mps 604 mmHg 72%

    Day after tomorrow, 18 January, Thursday

    Time Temperature Precipitation Wind Pressure Humidity
    00:00 +13°C° 0 mm 0 mps 604 mmHg 72%
    01:00 +13°C° 0 mm 0 mps 603 mmHg 72%
    02:00 +13°C° 0 mm 0 mps 603 mmHg 72%
    03:00 +13°C° 0 mm 0 mps 603 mmHg 72%
    04:00 +13°C° 0 mm 0 mps 603 mmHg 72%
    05:00 +13°C° 0 mm 0 mps 603 mmHg 72%
    06:00 +14°C° 0 mm 0 mps 604 mmHg 69%
    07:00 +15°C° 0 mm 0 mps 605 mmHg 67%
    08:00 +16°C° 0 mm 0 mps 605 mmHg 64%
    09:00 +20°C° 0 mm 1 mps 606 mmHg 58%
    10:00 +22°C° 0 mm 1 mps 607 mmHg 51%
    11:00 +24°C° 0 mm 1 mps 607 mmHg 45%
    12:00 +25°C° 0 mm 2 mps 607 mmHg 43%
    13:00 +25°C° 0 mm 2 mps 606 mmHg 41%
    14:00 +26°C° 0 mm 2 mps 605 mmHg 39%
    15:00 +24°C° 0 mm 2 mps 605 mmHg 45%
    16:00 +23°C° 0 mm 1 mps 604 mmHg 51%
    17:00 +21°C° 0 mm 1 mps 603 mmHg 57%
    18:00 +20°C° 0 mm 1 mps 603 mmHg 60%
    19:00 +19°C° 0 mm 1 mps 604 mmHg 64%
    20:00 +18°C° 0 mm 1 mps 604 mmHg 68%
    21:00 +16°C° 0 mm 1 mps 604 mmHg 71%
    22:00 +15°C° 0 mm 1 mps 604 mmHg 74%
    23:00 +15°C° 0 mm 1 mps 604 mmHg 77%

    19 January, Friday

    Time Temperature Precipitation Wind Pressure Humidity
    00:00 +14°C° 0 mm 1 mps 604 mmHg 78%
    01:00 +14°C° 0 mm 1 mps 603 mmHg 79%
    02:00 +13°C° 0 mm 0 mps 603 mmHg 80%
    03:00 +14°C° 0 mm 1 mps 603 mmHg 80%
    04:00 +13°C° 0 mm 1 mps 603 mmHg 81%
    05:00 +13°C° 0 mm 1 mps 603 mmHg 81%
    06:00 +15°C° 0 mm 1 mps 604 mmHg 75%
    07:00 +18°C° 0 mm 1 mps 605 mmHg 70%
    08:00 +19°C° 0 mm 1 mps 606 mmHg 64%
    09:00 +22°C° 0 mm 1 mps 607 mmHg 56%
    10:00 +24°C° 0 mm 1 mps 607 mmHg 47%
    11:00 +26°C° 0 mm 2 mps 608 mmHg 38%
    12:00 +26°C° 0 mm 2 mps 607 mmHg 39%
    13:00 +26°C° 0 mm 2 mps 606 mmHg 39%
    14:00 +25°C° 0 mm 2 mps 605 mmHg 40%
    15:00 +24°C° 0 mm 2 mps 605 mmHg 44%
    16:00 +23°C° 0 mm 1 mps 604 mmHg 49%
    17:00 +22°C° 0 mm 1 mps 603 mmHg 53%
    18:00 +20°C° 0 mm 1 mps 604 mmHg 59%
    19:00 +18°C° 0 mm 1 mps 604 mmHg 65%
    20:00 +16°C° 0 mm 1 mps 604 mmHg 71%
    21:00 +15°C° 0 mm 1 mps 604 mmHg 73%
    22:00 +15°C° 0 mm 1 mps 604 mmHg 75%
    23:00 +15°C° 0 mm 1 mps 604 mmHg 77%

    20 January, Saturday

    Time Temperature Precipitation Wind Pressure Humidity
    00:00 +14°C° 0 mm 1 mps 604 mmHg 79%
    01:00 +14°C° 0 mm 1 mps 603 mmHg 80%
    02:00 +12°C° 0 mm 0 mps 603 mmHg 81%
    03:00 +12°C° 0 mm 0 mps 603 mmHg 81%
    04:00 +12°C° 0 mm 0 mps 603 mmHg 81%
    05:00 +12°C° 0 mm 0 mps 603 mmHg 81%
    06:00 +13°C° 0 mm 0 mps 604 mmHg 75%
    07:00 +16°C° 0 mm 1 mps 605 mmHg 70%
    08:00 +18°C° 0 mm 1 mps 606 mmHg 64%
    09:00 +21°C° 0 mm 1 mps 607 mmHg 55%
    10:00 +24°C° 0 mm 1 mps 608 mmHg 46%
    11:00 +26°C° 0 mm 1 mps 608 mmHg 37%
    12:00 +26°C° 0 mm 1 mps 607 mmHg 37%
    13:00 +26°C° 0 mm 2 mps 606 mmHg 37%
    14:00 +26°C° 0 mm 2 mps 605 mmHg 37%
    15:00 +24°C° 0 mm 2 mps 605 mmHg 42%
    16:00 +23°C° 0 mm 2 mps 604 mmHg 47%
    17:00 +21°C° 0 mm 1 mps 604 mmHg 52%
    18:00 +20°C° 0.3 mm 1 mps 604 mmHg 57%
    19:00 +18°C° 0.3 mm 1 mps 604 mmHg 63%
    20:00 +16°C° 0.3 mm 1 mps 605 mmHg 69%
    21:00 +16°C° 0.1 mm 1 mps 605 mmHg 71%
    22:00 +15°C° 0.1 mm 1 mps 605 mmHg 74%
    23:00 +14°C° 0.1 mm 0 mps 605 mmHg 77%

    21 January, Sunday

    Time Temperature Precipitation Wind Pressure Humidity
    00:00 +14°C° 0.1 mm 0 mps 605 mmHg 78%
    01:00 +13°C° 0.1 mm 0 mps 604 mmHg 79%
    02:00 +13°C° 0.1 mm 0 mps 604 mmHg 81%
    03:00 +13°C° 0 mm 0 mps 604 mmHg 82%
    04:00 +12°C° 0 mm 0 mps 604 mmHg 83%
    05:00 +12°C° 0 mm 0 mps 604 mmHg 84%
    06:00 +14°C° 0 mm 0 mps 605 mmHg 78%
    07:00 +15°C° 0 mm 0 mps 606 mmHg 72%
    08:00 +17°C° 0 mm 0 mps 607 mmHg 66%
    09:00 +19°C° 0 mm 0 mps 607 mmHg 59%
    10:00 +24°C° 0 mm 1 mps 608 mmHg 51%
    11:00 +26°C° 0 mm 1 mps 609 mmHg 44%
    12:00 +25°C° 0.4 mm 1 mps 607 mmHg 48%
    13:00 +24°C° 0.4 mm 1 mps 606 mmHg 52%
    14:00 +23°C° 0.4 mm 1 mps 605 mmHg 56%
    15:00 +22°C° 0.7 mm 1 mps 605 mmHg 59%
    16:00 +22°C° 0.7 mm 1 mps 604 mmHg 63%
    17:00 +21°C° 0.7 mm 1 mps 604 mmHg 66%
    18:00 +19°C° 0.5 mm 1 mps 604 mmHg 72%
    19:00 +18°C° 0.5 mm 1 mps 604 mmHg 78%
    20:00 +14°C° 0.5 mm 0 mps 604 mmHg 84%
    21:00 +15°C° 0.4 mm 1 mps 604 mmHg 85%
    22:00 +15°C° 0.4 mm 1 mps 604 mmHg 86%
    23:00 +14°C° 0.4 mm 1 mps 604 mmHg 87%
    Show more